This is the latest recevied weather packets stored in our database for station/object HB9DDE-10. If no packets are shown the sender has not sent any weather packets the latest 10 day(s).
| Time | Temp. | Humidity | Pressure | Rain* | Wind** | Luminosity | Snow |
|---|---|---|---|---|---|---|---|
| 1777918123 | 12.22° C | 90% | 1014.5 hPa | 0 mm | - | - | - |
| 1777917832 | 12.78° C | 90% | 1014.6 hPa | 0 mm | - | - | - |
| 1777917520 | 12.78° C | 90% | 1014.6 hPa | 0 mm | - | - | - |
| 1777917215 | 12.78° C | 90% | 1014.6 hPa | 0 mm | - | - | - |
| 1777916924 | 12.78° C | 90% | 1014.7 hPa | 0 mm | - | - | - |
| 1777916633 | 12.78° C | 90% | 1014.7 hPa | 0 mm | - | - | - |
| 1777916322 | 12.78° C | 89% | 1014.8 hPa | 0 mm | - | - | - |
| 1777916031 | 12.78° C | 89% | 1014.7 hPa | 0 mm | - | - | - |
| 1777915721 | 12.78° C | 89% | 1014.8 hPa | 0 mm | - | - | - |
| 1777915431 | 12.78° C | 89% | 1014.8 hPa | 0 mm | - | - | - |
| 1777915120 | 12.78° C | 89% | 1014.8 hPa | 0 mm | - | - | - |
| 1777914815 | 12.78° C | 89% | 1014.9 hPa | 0 mm | - | - | - |
| 1777914525 | 12.78° C | 90% | 1014.9 hPa | 0 mm | - | - | - |
| 1777914215 | 12.78° C | 89% | 1014.9 hPa | 0 mm | - | - | - |
| 1777913926 | 12.78° C | 89% | 1014.9 hPa | 1.02 mm | - | - | - |
| 1777913615 | 12.78° C | 89% | 1015 hPa | 2.03 mm | - | - | - |
| 1777913326 | 12.78° C | 90% | 1015 hPa | 2.03 mm | - | - | - |
| 1777913034 | 12.78° C | 90% | 1014.9 hPa | 3.05 mm | - | - | - |
| 1777912721 | 12.78° C | 90% | 1015 hPa | 4.06 mm | - | - | - |
| 1777912431 | 12.78° C | 90% | 1014.9 hPa | 5.08 mm | - | - | - |
| 1777912127 | 12.78° C | 90% | 1014.9 hPa | 7.11 mm | - | - | - |
| 1777911816 | 12.78° C | 90% | 1015 hPa | 7.87 mm | - | - | - |
| 1777911528 | 12.78° C | 90% | 1015 hPa | 8.89 mm | - | - | - |
| 1777911216 | 12.78° C | 90% | 1015 hPa | 8.89 mm | - | - | - |
| 1777910927 | 12.78° C | 90% | 1014.6 hPa | 8.89 mm | - | - | - |
* Rain latest hour (hover to see other rain measurements)
** Current wind speed in m/s (hover to see current wind gust speed)